Regional Weather Roundup
Issued by NWS Pendleton, OR

Home | Current Version | Previous Version | Text Only | Print | Product List | Glossary On
Versions: 1 2 3 4 5 6 7 8 9 10 11 12 13 14 15 16 17 18 19 20 21 22 23 24 25 26 27 28 29 30 31 32 33 34 35 36 37 38 39 40 41 42 43 44 45 46 47 48 49 50
000
ASUS46 KPDT 271725
RWRPDT
PENDLETON REGIONAL WEATHER ROUNDUP
NATIONAL WEATHER SERVICE PENDLETON OREGON
1000 AM PDT WED AUG 27 2014

NOTE: FAIR INDICATES FEW OR NO CLOUDS BELOW 12,000 FEET WITH NO
SIGNIFICANT WEATHER AND/OR OBSTRUCTIONS TO VISIBILITY.

# INDICATES UNOFFICIAL STATION AND DATA

WAZ520-271810-
EAST SLOPES OF WASHINGTON CASCADES

CITY            SKY/WX      TMP DP  RH  WIND    PRES   REMARKS
#CLE ELUM HS    N/A         75  53  46  W2      29.99S
#CLE ELUM 2NW   N/A         76  50  40  SW3     N/A
#CLE ELUM LAKE  N/A         74  56  53  CALM    29.91R
#CLIFFDEL 2NW   N/A         63  54  72  CALM    N/A
#GLENWOOD       N/A         66  59  78  CALM    29.98F
#MANASTASH CYN  N/A         71  55  57  CALM    30.04R
#NELSON         N/A         75  57  54  CALM    29.95F
#NILE           N/A         74  56  53  CALM    29.26F
#RONALD 2NW     N/A         70  57  63  W1      29.94R
#TEANAWAY 4NE   N/A         72  60  66  CALM    N/A
#TROUT LAKE 1NE N/A         72  59  64  CALM    29.96F
$$

WAZ521-271810-
SIMCOE HIGHLANDS

CITY            SKY/WX      TMP DP  RH  WIND    PRES   REMARKS
#BICKLETON HS   N/A         77  44  31  W7      30.12S
#CENTERVILLE 4W N/A         78  54  43  NW2     29.81S
#CENTERVILLE 1SWN/A         78  54  43  SW3     29.92F
#GOLDENDALE     N/A         70  50  49  W2      N/A
#GOLDENDALE 1NE N/A         75  45  34  SW1     N/A
#GOLDENDALE 1S  N/A         78  56  47  W2      30.01F
#GOODNOE HILLS  N/A         79  54  42  W13     29.96S
#LYLE 6NE       N/A         74  54  50  S5      29.93S
$$

WAZ026-271810-
KITTITAS VALLEY

CITY            SKY/WX      TMP DP  RH  WIND    PRES   REMARKS
ELLENSBURG AP   SUNNY       76  56  50  VRB5    30.03S
#ELLENSBURG CWU N/A         77  57  50  CALM    29.91S
#ELLENSBURG 3NE N/A         72  60  66  SW2     30.03S
#ELLENSBURG     N/A         80  62  54  E2      N/A
#ELLENSBURG 1E  N/A         71  56  59  CALM    N/A
#KITTITAS 3S    N/A         72  57  59  CALM    29.95S
#THORP 6N       N/A         74  55  51  NW10    29.95S
$$

WAZ027-271810-
YAKIMA VALLEY

CITY            SKY/WX      TMP DP  RH  WIND    PRES   REMARKS
SUNNYSIDE AP    SUNNY       73  57  57  CALM    30.01R
YAKIMA AIRPORT  SUNNY       78  56  47  NE3     30.01S
YAKIMA-VAGABOND SUNNY       76  53  45  N5      30.03S
#COWICHE 1N     N/A         74  57  55  N5      30.19S
#DONALD 2NE     N/A         88  55  33  NE1     30.33S
#GRANDVIEW      N/A         77  57  50  CALM    29.98S
#MABTON         N/A         76  59  56  CALM    29.99S
#MOXEE 2E       N/A         76  34  22  CALM    29.92F
#NACHES 2SW     N/A         77  57  50  CALM    30.04S
#OUTLOOK DOT    N/A         N/A N/A N/A CALM    N/A
#SELAH 8E       N/A         82  51  34  NW5     N/A
#TERRACE HTS    N/A         75  57  54  CALM    29.92S
#TOPPENISH      N/A         75  59  58  CALM    29.87F
#WAPATO 4NE     N/A         88  55  33  NE1     30.33S
#WEST VALLEY    N/A         77  60  56  CALM    29.93S
#W YAKIMA       N/A         79  58  49  NE1     29.93F
#WHITE SWAN 5E  N/A         76  58  54  E3      29.96S
#WILEY CITY 3W  N/A         77  55  47  CALM    30.01F
$$

WAZ028-271810-
LOWER COLUMBIA BASIN...WASHINGTON

CITY            SKY/WX      TMP DP  RH  WIND    PRES   REMARKS
HANFORD         SUNNY       78  47  34  SE3     29.98S
PASCO           SUNNY       77  50  39  CALM    29.99S
PROSSER AWOS    N/A         79  55  44  SW1     30.02S
RICHLAND AWOS   SUNNY       75  50  41  CALM    29.99S
#BASIN CITY 5SW N/A         75  54  48  SE2     30.00R
#BENTON CITY    N/A         80  49  34  N1      29.87S
#CONNELL 5N     N/A         82  47  29  E1      29.95R
#CONNELL 5NW    N/A         80  48  33  SW1     29.93S
#ELTOPIA        N/A         81  52  37  S2      29.93S
#ELTOPIA 6NW    N/A         75  53  46  CALM    28.97S
#KENNEWICK 3S   N/A         81  53  38  SE1     29.96S
#PATERSON       N/A         73  50  44  CALM    29.96F
#PROSSER        N/A         77  51  40  CALM    29.96R
#SAGEMOOR 2W    N/A         76  58  54  CALM    29.83R
#TOUCHET 2S     N/A         77  53  43  E1      29.96S
#WEST PASCO     N/A         75  57  54  NE1     29.97F
$$

WAZ029-271810-
FOOTHILLS OF THE BLUES...WASHINGTON

CITY            SKY/WX      TMP DP  RH  WIND    PRES   REMARKS
WALLA WALLA AP  SUNNY       83  41  23  W8      30.03S
#COLLEGE PLACE  N/A         79  47  32  CALM    30.00S
#DAYTON SCHOOL  N/A         82  43  25  W2      30.01S
#LOWDEN 2SE     N/A         82  55  40  CALM    29.95F
#PLEASANT VIEW 1N/A         84  43  24  S3      29.98S
#PRESCOTT       N/A         84  48  29  CALM    29.95F
#SUDBURY        N/A         86  N/A N/A CALM    N/A
#WHITMAN COLLEGEN/A         82  45  27  W3      30.00S
#WAITSBURG 8N   N/A         83  32  16  S6      29.97S
#WALLA WALLA 5E N/A         78  41  27  SW7     N/A
$$

WAZ030-271810-
BLUE MOUNTAINS...WASHINGTON

CITY            SKY/WX      TMP DP  RH  WIND    PRES   REMARKS
$$

ORZ009-041-WAZ024-271810-
COLUMBIA RIVER GORGE

CITY            SKY/WX      TMP DP  RH  WIND    PRES   REMARKS
HOOD RIVER AP   SUNNY       73  57  57  CALM    30.03S
THE DALLES AP   SUNNY       78  53  42  CALM    29.99F
#ARLINGTON AIRPON/A         80  53  39  W10     N/A
#ARLINGTON HS   N/A         83  51  33  CALM    29.86F
#MARYHILL 2W    N/A         76  57  52  E1      N/A
#MOSIER 1S      N/A         75  47  37  CALM    30.03F
#MURDOCK        N/A         76  59  56  NW12    29.99F

$$

ORZ510-271810-
NORTH CENTRAL OREGON

CITY            SKY/WX      TMP DP  RH  WIND    PRES   REMARKS
#CHENOWITH 1W   N/A         72  51  48  W12     N/A
#COW CYN RST AREN/A         73  43  34  SW6     N/A
#DUFUR 9E       N/A         78  50  38  N1      29.98S
#GRASS VALLEY   N/A         76  47  36  S5      N/A
#GRASS VALLEY 1SN/A         77  49  37  SW7     29.98F
#KENT DOT       N/A         79  47  32  W3      N/A
#MAUPIN SCHOOL  N/A         76  53  45  CALM    28.91F
#MORO SCHOOL    N/A         80  54  41  SW5     30.06R
#SHANIKO 5WSW   N/A         75  44  33  SW7     N/A
#SHANIKO 4NW    N/A         74  41  30  SW2     30.15R
#TYGH VALLEY 2NEN/A         74  52  46  CALM    29.98F
#WAPANITIA AIRPON/A         79  50  36  CALM    29.98S
#WASCO AIRPORT  N/A         79  47  32  W8      N/A
#WASCO 5NE      N/A         80  53  39  W7      29.96S
$$

ORZ511-271810-
CENTRAL OREGON

CITY            SKY/WX      TMP DP  RH  WIND    PRES   REMARKS
BEND AIRPORT    SUNNY       77  45  32  S3      30.16S
MADRAS AIRPORT  SUNNY       72  41  33  CALM    30.13S
REDMOND AIRPORT SUNNY       74  39  28  E5      30.13S
#BEND 6E        N/A         78  42  28  CALM    29.91F
#BEND-AWBREY    N/A         74  47  38  N3      29.98S
#BEND-KIM LN    N/A         73  50  44  SW2     30.13S
#CROOKED RVR RANN/A         76  46  34  CALM    29.98F
#CULVER         N/A         76  49  39  CALM    30.08S
#LAKE BILLY CHINN/A         74   9   8  W1      30.13F
#POWELL BUTTE   N/A         79  47  32  NE1     29.78S
#PRINEVILLE 3N  N/A         72  52  49  CALM    29.98S
#WARM SPRINGS   N/A         77  49  37  CALM    30.05F


ORZ509-271810-
EAST SLOPES OF OREGON CASCADES

CITY            SKY/WX      TMP DP  RH  WIND    PRES   REMARKS
#BLUE BOX PASS  N/A         68  13  12  NW3     N/A
#BLACK BUTTE RNCN/A         63  54  72  CALM    30.01S
#CAMP SHERMAN   N/A         73  49  43  CALM    30.01F
#LA PINE 4NW    N/A         65  47  52  CALM    30.09F
#SISTERS AIRPOR N/A         75  55  50  CALM    30.11S
#SISTERS ODOT   N/A         76  N/A N/A E2      N/A
#SISTERS 1NW    N/A         73  N/A N/A E7      N/A
#SISTERS 3N     N/A         74  52  46  CALM    N/A
#SUNRIVER       N/A         66  49  54  S3      29.95S
#SUNRIVER AP    N/A         64  49  58  CALM    30.02S
#SUTTLE LK DOT  N/A         69  52  55  CALM    N/A
#TUMALO 3W      N/A         75  46  36  E1      29.85S
#WANOGA BUTTE D N/A         67  39  36  SW7     N/A

$$

ORZ044-271810-
LOWER COLUMBIA BASIN...OREGON

CITY            SKY/WX      TMP DP  RH  WIND    PRES   REMARKS
HERMISTON       SUNNY       79  49  35  NW5     30.00S
#BOARDMAN SCHOOLN/A         72  52  49  CALM    29.97F
#BOARDMAN 3W    N/A         74  56  53  NE3     29.68F
#BOARDMAN 8SW   N/A         79  56  45  W1      29.96F
#ECHO 8SW       N/A         79  50  36  CALM    29.97F
#IONE SCHOOL    N/A         82  48  31  W3      30.00S
#IRRIGON 4NW    N/A         74  51  44  N3      N/A
#UMATILLA SCHOOLN/A         81  58  46  CALM    30.02S
#UMATILLA       N/A         78  49  36  CALM    29.97F
$$

ORZ507-271810-
NORTHERN FOOTHILLS OF THE BLUES

CITY            SKY/WX      TMP DP  RH  WIND    PRES   REMARKS
PENDLETON AIRPT SUNNY       80  42  26  VRB3    30.03S
#ADAMS 3WNW     N/A         81  45  28  W1      29.97S
#ATHENA         N/A         82  46  28  CALM    29.98F
#HELIX SCHOOL   N/A         80  44  28  SE5     29.97S
#HELIX 3N       N/A         80  42  26  S7      30.02S
#HELIX 6SW      N/A         80  45  29  SW6     30.03S
#HOLDMAN 5SE    N/A         82  47  29  W5      30.03S
#HOLDMAN 6E     N/A         81  45  28  NE6     29.78S
#M-F GROVE ELEM N/A         86  39  19  SW7     29.99S
#M-FREEWATER 5SEN/A         82  47  29  W6      30.01S
#PENDLETON DNTN N/A         78  49  36  CALM    29.98S
#PDT AQUATIC CTRN/A         77  48  36  CALM    30.01F
#PDT SUNRIDGE   N/A         82  47  29  CALM    30.03S
#PENDLETON 7NW  N/A         83  55  38  CALM    N/A
#PILOT ROCK     N/A         82  45  27  N2      30.05F
#TUTUILLA       N/A         83  47  28  SW1     29.93S
#UMAPINE 2E     N/A         82  57  43  NW1     29.97S
#WESTON SCHOOL  N/A         80  39  23  W3      30.01R

$$

ORZ508-271810-
SOUTHERN FOOTHILLS OF THE BLUES

CITY            SKY/WX      TMP DP  RH  WIND    PRES   REMARKS
LEXINGTON       SUNNY       84  46  27  W6      30.05F
#AJAX           N/A         77  40  26  SW7     30.00S
#CONDON SCHOOL  N/A         77  43  30  SW7     30.06S
#CONDON 5W      N/A         76  41  28  S8      30.10R
#FOSSIL SCHOOL  N/A         80  45  29  CALM    30.06F
#HEPPNER EOC    N/A         82  47  29  N3      29.91F
#HEPPNER 4NE    N/A         79  47  32  SW1     29.96S
#LEXINGTON 2SE  N/A         85  51  31  CALM    30.01S
#MIKKALO        N/A         81  44  27  N7      30.04S
#OLEX 4N        N/A         81  47  30  W7      30.00S
#RUGGS 5NE      N/A         81  47  30  W2      30.23F
#RUGGS 2SW      N/A         82  44  26  W3      30.00F

$$

ORZ502-503-271810-
BLUE MOUNTAINS

CITY            SKY/WX      TMP DP  RH  WIND    PRES   REMARKS
MEACHAM         SUNNY       74  47  38  E3      30.15S
#BATTLE MTN DOT N/A         68  50  53  S7      N/A
#HARDMAN 10S    N/A         71  43  36  E2      30.22S
#HEPPNER 15SE   N/A         73  49  43  CALM    30.09R
#LADD CREEK ODOTN/A         66  48  52  NE7     N/A
#LONG CREEK HS  N/A         73  46  38  N6      N/A
#N POWDER DOT   N/A         73  47  40  W1      N/A
#PIKES PEAK     N/A         72  42  34  SW8     27.99S
#TOLLGATE       N/A         68  43  40  SW2     30.12S
#TOLLGATE 9W    N/A         70  38  31  SE5     N/A
#UKIAH          N/A         64  45  50  CALM    30.10F
#WESTON 4E      N/A         76  39  26  S6      29.91S
$$

ORZ505-271810-
JOHN DAY BASIN

CITY            SKY/WX      TMP DP  RH  WIND    PRES   REMARKS
JOHN DAY        SUNNY       73  37  27  CALM    30.17F
#JOHN DAY KJDY  N/A         73  39  29  CALM    30.27R
#DAYVILLE SCHOOLN/A         69  35  28  CALM    30.10F
#MONUMENT HS    N/A         70  40  34  S2      30.12F
#MT. VERNON 5SE N/A         72  39  30  NE5     30.14S
#WINLOCK        N/A         80  43  27  E5      30.21S
$$

ORZ506-271810-
OCHOCO AND JOHN DAY HIGHLANDS

CITY            SKY/WX      TMP DP  RH  WIND    PRES   REMARKS
#BUCK CREEK DOT N/A         80  46  30  CALM    N/A
#HORSE RIDGE DO N/A         76  38  25  E2      N/A
#KEYES SMT DOT  N/A         73  39  29  SE7     N/A
#PAULINA SCHOOL N/A         N/A N/A N/A CALM    30.17S
#PRAIRIE CITY   N/A         73  45  37  CALM    30.02F
#SENECA 9NW     N/A         61  37  41  CALM    30.06F
$$

ORZ049-271810-
GRANDE RONDE VALLEY

CITY            SKY/WX      TMP DP  RH  WIND    PRES   REMARKS
LA GRANDE       SUNNY       68  39  35  SE5     30.13F
#COVE           N/A         68  51  55  CALM    30.05F
#COVE SCHOOL    N/A         68  47  47  CALM    30.11S
#COVE 6NW       N/A         66  47  50  CALM    30.09F
#ELGIN 3N       N/A         70  44  39  CALM    29.85F
#ELGIN 1E       N/A         67  47  49  CALM    N/A
#IMBLER SCHOOL  N/A         68  48  49  S2      30.09F
#ISLAND CITY 4N N/A         74  49  41  CALM    29.98F
#LADD CYN DOT   N/A         70  48  46  NW1     N/A
#LA GRANDE ELEM N/A         69  47  45  CALM    30.10F
#UNION 1S       N/A         65  49  56  CALM    29.95F
$$

ORZ050-271810-
WALLOWA COUNTY

CITY            SKY/WX      TMP DP  RH  WIND    PRES   REMARKS
JOSEPH AIRPORT  SUNNY       73  39  29  CALM    30.19S
#ENTERPRISE AP  N/A         71  41  34  CALM    30.10S
#ENTERPRISE HS  N/A         70  48  46  CALM    30.17S
#IMNAHA SCHOOL  N/A         72  42  34  S1      29.99F
#IMNAHA 10S     N/A         74  47  38  NE2     30.11F
#JOSEPH 3N      N/A         67  46  47  CALM    30.18R
#JOSEPH 3W      N/A         70  44  39  E2      30.04R
#MT HOWARD 8000 N/A         59  35  40  S1      30.41S
#PROMISE 1S     N/A         71  49  46  W2      30.10F
#SHEEP RDG 7000 N/A         60  36  41  CALM    30.00S
#WALLOWA SCHOOL N/A         64  48  56  CALM    30.96F



$$



USA.gov is the U.S. government's official web portal to all federal, state and local government web resources and services.